• In Germany
  • List of Countries
  • For 7 days
  • Water Temperature
  • Satellite Maps
  • Weather Map
  • Weather Widgets
  • user-avatar
    Login

    Hourly Weather Hoeryŏng

    Today, 20 August, Sunday

    Time Temperature Precipitation Wind Pressure Humidity
    00:00 +25°C° 0.8 mm 2 mps 753 mmHg 86%
    01:00 +25°C° 0.8 mm 2 mps 752 mmHg 87%
    02:00 +24°C° 0 mm 2 mps 752 mmHg 88%
    03:00 +24°C° 2.3 mm 2 mps 752 mmHg 88%
    04:00 +24°C° 2.3 mm 2 mps 752 mmHg 89%
    05:00 +24°C° 2.3 mm 3 mps 752 mmHg 90%
    06:00 +24°C° 2.8 mm 3 mps 752 mmHg 90%
    07:00 +24°C° 2.8 mm 3 mps 752 mmHg 91%
    08:00 +24°C° 0 mm 3 mps 752 mmHg 90%
    09:00 +25°C° 3.3 mm 3 mps 752 mmHg 91%
    10:00 +25°C° 3.3 mm 3 mps 751 mmHg 91%
    11:00 +25°C° 3.3 mm 3 mps 751 mmHg 91%
    12:00 +25°C° 1.8 mm 3 mps 751 mmHg 90%
    13:00 +26°C° 1.8 mm 3 mps 750 mmHg 89%
    14:00 +26°C° 0 mm 2 mps 750 mmHg 86%
    15:00 +26°C° 2 mm 2 mps 750 mmHg 87%
    16:00 +26°C° 2 mm 3 mps 750 mmHg 88%
    17:00 +26°C° 2 mm 3 mps 750 mmHg 89%
    18:00 +26°C° 2.4 mm 3 mps 750 mmHg 90%
    19:00 +25°C° 2.4 mm 3 mps 750 mmHg 90%
    20:00 +25°C° 2.4 mm 3 mps 750 mmHg 91%
    21:00 +25°C° 1.9 mm 3 mps 750 mmHg 91%
    22:00 +25°C° 1.9 mm 3 mps 750 mmHg 91%
    23:00 +25°C° 1.9 mm 3 mps 750 mmHg 91%

    Tomorrow, 21 August, Monday

    Time Temperature Precipitation Wind Pressure Humidity
    00:00 +25°C° 1.3 mm 3 mps 749 mmHg 92%
    01:00 +25°C° 1.3 mm 2 mps 749 mmHg 92%
    02:00 +25°C° 1.3 mm 2 mps 749 mmHg 92%
    03:00 +25°C° 1 mm 2 mps 749 mmHg 92%
    04:00 +25°C° 1 mm 2 mps 749 mmHg 93%
    05:00 +25°C° 1 mm 2 mps 749 mmHg 93%
    06:00 +25°C° 0.5 mm 3 mps 749 mmHg 91%
    07:00 +26°C° 0.5 mm 3 mps 749 mmHg 89%
    08:00 +27°C° 0.5 mm 3 mps 749 mmHg 87%
    09:00 +27°C° 0.4 mm 3 mps 749 mmHg 87%
    10:00 +27°C° 0.4 mm 3 mps 749 mmHg 86%
    11:00 +27°C° 0.4 mm 3 mps 749 mmHg 86%
    12:00 +28°C° 0.9 mm 4 mps 749 mmHg 84%
    13:00 +28°C° 0.9 mm 4 mps 749 mmHg 83%
    14:00 +29°C° 0.9 mm 4 mps 749 mmHg 81%
    15:00 +29°C° 0.9 mm 4 mps 749 mmHg 81%
    16:00 +28°C° 0.9 mm 3 mps 749 mmHg 82%
    17:00 +28°C° 0.9 mm 3 mps 749 mmHg 82%
    18:00 +28°C° 0.5 mm 3 mps 749 mmHg 84%
    19:00 +27°C° 0.5 mm 2 mps 750 mmHg 86%
    20:00 +26°C° 0.5 mm 2 mps 750 mmHg 88%
    21:00 +26°C° 0.2 mm 2 mps 750 mmHg 89%
    22:00 +26°C° 0.2 mm 2 mps 750 mmHg 90%
    23:00 +26°C° 0.2 mm 1 mps 750 mmHg 91%

    Day after tomorrow, 22 August, Tuesday

    Time Temperature Precipitation Wind Pressure Humidity
    00:00 +25°C° 0.2 mm 1 mps 750 mmHg 91%
    01:00 +25°C° 0.2 mm 1 mps 750 mmHg 92%
    02:00 +25°C° 0.2 mm 1 mps 750 mmHg 93%
    03:00 +25°C° 0.1 mm 1 mps 750 mmHg 93%
    04:00 +25°C° 0.1 mm 1 mps 751 mmHg 94%
    05:00 +25°C° 0.1 mm 1 mps 751 mmHg 94%
    06:00 +26°C° 0.1 mm 1 mps 751 mmHg 90%
    07:00 +27°C° 0.1 mm 1 mps 751 mmHg 86%
    08:00 +28°C° 0.1 mm 2 mps 752 mmHg 83%
    09:00 +29°C° 0.1 mm 2 mps 752 mmHg 77%
    10:00 +31°C° 0.1 mm 2 mps 751 mmHg 72%
    11:00 +33°C° 0.1 mm 3 mps 751 mmHg 67%
    12:00 +33°C° 0.1 mm 3 mps 751 mmHg 65%
    13:00 +33°C° 0.1 mm 4 mps 751 mmHg 64%
    14:00 +34°C° 0.1 mm 4 mps 751 mmHg 62%
    15:00 +33°C° 0 mm 4 mps 751 mmHg 65%
    16:00 +31°C° 0 mm 3 mps 751 mmHg 68%
    17:00 +30°C° 0 mm 3 mps 751 mmHg 70%
    18:00 +29°C° 0 mm 2 mps 751 mmHg 75%
    19:00 +28°C° 0 mm 2 mps 752 mmHg 79%
    20:00 +27°C° 0 mm 2 mps 753 mmHg 84%
    21:00 +26°C° 0 mm 1 mps 753 mmHg 85%
    22:00 +26°C° 0 mm 1 mps 753 mmHg 87%
    23:00 +24°C° 0 mm 0 mps 753 mmHg 88%

    23 August, Wednesday

    Time Temperature Precipitation Wind Pressure Humidity
    00:00 +24°C° 0 mm 0 mps 753 mmHg 89%
    01:00 +24°C° 0 mm 0 mps 753 mmHg 90%
    02:00 +23°C° 0 mm 0 mps 752 mmHg 90%
    03:00 +23°C° 0.1 mm 0 mps 752 mmHg 90%
    04:00 +25°C° 0.1 mm 1 mps 753 mmHg 91%
    05:00 +26°C° 0.1 mm 1 mps 753 mmHg 91%
    06:00 +26°C° 0.1 mm 1 mps 753 mmHg 88%
    07:00 +27°C° 0.1 mm 1 mps 753 mmHg 86%
    08:00 +28°C° 0.1 mm 1 mps 753 mmHg 83%
    09:00 +29°C° 0.7 mm 2 mps 753 mmHg 80%
    10:00 +30°C° 0.7 mm 2 mps 753 mmHg 77%
    11:00 +31°C° 0.7 mm 3 mps 752 mmHg 75%
    12:00 +31°C° 1 mm 3 mps 752 mmHg 75%
    13:00 +32°C° 1 mm 4 mps 752 mmHg 76%
    14:00 +32°C° 1 mm 4 mps 751 mmHg 76%
    15:00 +31°C° 0.7 mm 3 mps 751 mmHg 79%
    16:00 +30°C° 0.7 mm 3 mps 751 mmHg 81%
    17:00 +29°C° 0.7 mm 3 mps 751 mmHg 83%
    18:00 +29°C° 0.6 mm 3 mps 751 mmHg 85%
    19:00 +28°C° 0.6 mm 3 mps 751 mmHg 87%
    20:00 +28°C° 0.6 mm 2 mps 752 mmHg 88%
    21:00 +28°C° 0.5 mm 3 mps 751 mmHg 89%
    22:00 +28°C° 0.5 mm 3 mps 751 mmHg 89%
    23:00 +28°C° 0.5 mm 3 mps 751 mmHg 89%

    24 August, Thursday

    Time Temperature Precipitation Wind Pressure Humidity
    00:00 +28°C° 0.9 mm 3 mps 750 mmHg 89%
    01:00 +28°C° 0.9 mm 4 mps 750 mmHg 90%
    02:00 +28°C° 0.9 mm 4 mps 749 mmHg 90%
    03:00 +28°C° 0.7 mm 5 mps 749 mmHg 90%
    04:00 +28°C° 0.7 mm 5 mps 749 mmHg 90%
    05:00 +28°C° 0.7 mm 6 mps 748 mmHg 91%
    06:00 +28°C° 0.9 mm 6 mps 748 mmHg 90%
    07:00 +28°C° 0.9 mm 7 mps 748 mmHg 89%
    08:00 +29°C° 0.9 mm 7 mps 748 mmHg 88%
    09:00 +29°C° 1.5 mm 7 mps 748 mmHg 89%
    10:00 +29°C° 1.5 mm 7 mps 748 mmHg 89%
    11:00 +29°C° 1.5 mm 7 mps 748 mmHg 89%
    12:00 +29°C° 1.9 mm 6 mps 748 mmHg 89%
    13:00 +28°C° 1.9 mm 5 mps 747 mmHg 90%
    14:00 +28°C° 1.9 mm 4 mps 747 mmHg 90%
    15:00 +28°C° 0.6 mm 3 mps 747 mmHg 88%
    16:00 +29°C° 0.6 mm 3 mps 748 mmHg 86%
    17:00 +29°C° 0.6 mm 2 mps 748 mmHg 85%
    18:00 +28°C° 0.1 mm 2 mps 748 mmHg 86%
    19:00 +27°C° 0.1 mm 2 mps 749 mmHg 88%
    20:00 +26°C° 0.1 mm 1 mps 749 mmHg 90%
    21:00 +26°C° 0 mm 1 mps 749 mmHg 89%
    22:00 +25°C° 0 mm 1 mps 749 mmHg 88%
    23:00 +24°C° 0 mm 1 mps 749 mmHg 87%

    25 August, Friday

    Time Temperature Precipitation Wind Pressure Humidity
    00:00 +24°C° 0 mm 1 mps 749 mmHg 85%
    01:00 +23°C° 0 mm 1 mps 749 mmHg 83%
    02:00 +22°C° 0 mm 1 mps 749 mmHg 81%
    03:00 +22°C° 0 mm 1 mps 749 mmHg 80%
    04:00 +21°C° 0 mm 1 mps 749 mmHg 79%
    05:00 +21°C° 0 mm 1 mps 750 mmHg 78%
    06:00 +22°C° 0 mm 1 mps 750 mmHg 72%
    07:00 +24°C° 0 mm 1 mps 750 mmHg 66%
    08:00 +25°C° 0 mm 1 mps 750 mmHg 61%
    09:00 +27°C° 0 mm 2 mps 750 mmHg 53%
    10:00 +28°C° 0 mm 2 mps 750 mmHg 46%
    11:00 +30°C° 0 mm 2 mps 750 mmHg 38%
    12:00 +30°C° 0 mm 3 mps 750 mmHg 38%
    13:00 +30°C° 0 mm 3 mps 749 mmHg 38%
    14:00 +31°C° 0 mm 3 mps 749 mmHg 38%
    15:00 +30°C° 0 mm 3 mps 749 mmHg 44%
    16:00 +29°C° 0 mm 3 mps 749 mmHg 49%
    17:00 +28°C° 0 mm 3 mps 749 mmHg 54%
    18:00 +27°C° 0 mm 2 mps 750 mmHg 58%
    19:00 +26°C° 0 mm 2 mps 750 mmHg 62%
    20:00 +24°C° 0 mm 2 mps 750 mmHg 65%
    21:00 +24°C° 0 mm 2 mps 750 mmHg 65%
    22:00 +24°C° 0 mm 1 mps 750 mmHg 65%
    23:00 +24°C° 0 mm 1 mps 750 mmHg 65%
    Show more